Time,TemperatureF,DewpointF,PressureIn,WindDirection,WindDirectionDegrees,WindSpeedMPH,WindSpeedGustMPH,Humidity,HourlyPrecipIn,Conditions,Clouds,dailyrainin,SoftwareType,DateUTC
2013-01-10 00:00:00,43.5,12.6,31.03,SSW,198,15.0,26.0,28,-99.99,,,0.00,meteohub,2013-01-10 05:00:00,
2013-01-10 00:01:00,43.5,10.0,31.03,SSW,202,15.0,26.0,25,-99.99,,,0.00,meteohub,2013-01-10 05:01:00,
2013-01-10 00:03:00,43.3,9.9,31.03,South,182,13.0,26.0,25,-99.99,,,0.00,meteohub,2013-01-10 05:03:00,
2013-01-10 00:07:00,43.5,10.0,31.03,SSW,201,20.0,26.0,25,-99.99,,,0.00,meteohub,2013-01-10 05:07:00,
2013-01-10 00:12:00,43.5,8.2,31.03,South,180,24.0,27.0,23,-99.99,,,0.00,meteohub,2013-01-10 05:12:00,
2013-01-10 00:17:00,43.7,5.2,31.03,SSW,204,16.0,27.0,20,-99.99,,,0.00,meteohub,2013-01-10 05:17:00,
2013-01-10 00:22:00,43.5,5.0,31.03,SSW,199,15.0,25.0,20,-99.99,,,0.00,meteohub,2013-01-10 05:22:00,
2013-01-10 00:27:00,43.5,2.8,31.03,SSW,201,19.0,25.0,18,-99.99,,,0.00,meteohub,2013-01-10 05:27:00,
2013-01-10 00:32:00,43.2,2.5,31.03,SSW,198,11.0,25.0,18,-99.99,,,0.00,meteohub,2013-01-10 05:32:00,
2013-01-10 00:37:00,43.0,2.3,31.03,SSW,197,13.0,24.0,18,-99.99,,,0.00,meteohub,2013-01-10 05:37:00,
2013-01-10 00:42:00,42.8,2.1,31.03,South,187,13.0,24.0,18,-99.99,,,0.00,meteohub,2013-01-10 05:42:00,
2013-01-10 00:47:00,42.8,2.1,31.03,South,178,8.0,17.0,18,-99.99,,,0.00,meteohub,2013-01-10 05:47:00,
2013-01-10 00:52:00,42.8,2.1,31.03,South,189,13.0,17.0,18,-99.99,,,0.00,meteohub,2013-01-10 05:52:00,
2013-01-10 00:57:00,42.6,2.1,31.03,South,179,13.0,17.0,18,-99.99,,,0.00,meteohub,2013-01-10 05:57:00,
2013-01-10 01:02:00,42.4,1.9,31.03,SSW,192,8.0,17.0,18,-99.99,,,0.00,meteohub,2013-01-10 06:02:00,
2013-01-10 01:07:00,42.3,1.8,31.03,SSW,194,11.0,17.0,18,-99.99,,,0.00,meteohub,2013-01-10 06:07:00,
2013-01-10 01:12:00,42.3,1.8,31.03,South,174,9.0,17.0,18,-99.99,,,0.00,meteohub,2013-01-10 06:12:00,
2013-01-10 01:17:00,42.3,1.8,31.03,SSW,194,11.0,17.0,18,-99.99,,,0.00,meteohub,2013-01-10 06:17:00,
2013-01-10 01:23:00,42.3,1.8,31.03,South,183,11.0,17.0,18,-99.99,,,0.00,meteohub,2013-01-10 06:23:00,
2013-01-10 01:28:00,42.1,1.6,31.03,South,173,12.0,17.0,18,-99.99,,,0.00,meteohub,2013-01-10 06:28:00,
2013-01-10 01:33:00,41.7,1.2,31.03,South,188,11.0,17.0,18,-99.99,,,0.00,meteohub,2013-01-10 06:33:00,
2013-01-10 01:38:00,41.7,1.2,31.03,SSW,209,15.0,17.0,18,-99.99,,,0.00,meteohub,2013-01-10 06:38:00,
2013-01-10 01:44:00,41.7,1.2,31.03,South,186,12.0,17.0,18,-99.99,,,0.00,meteohub,2013-01-10 06:44:00,
2013-01-10 01:49:00,41.5,1.2,31.03,South,180,15.0,17.0,18,-99.99,,,0.00,meteohub,2013-01-10 06:49:00,
2013-01-10 01:54:00,41.5,-1.3,31.03,South,181,11.0,17.0,16,-99.99,,,0.00,meteohub,2013-01-10 06:54:00,
2013-01-10 01:59:00,41.4,-1.5,31.03,South,185,8.0,15.0,16,-99.99,,,0.00,meteohub,2013-01-10 06:59:00,
2013-01-10 02:05:00,41.2,-1.7,31.03,South,171,11.0,15.0,16,-99.99,,,0.00,meteohub,2013-01-10 07:05:00,
2013-01-10 02:10:00,41.4,-1.5,31.03,South,182,11.0,15.0,16,-99.99,,,0.00,meteohub,2013-01-10 07:10:00,
2013-01-10 02:15:00,41.4,-1.5,31.03,SSW,193,10.0,15.0,16,-99.99,,,0.00,meteohub,2013-01-10 07:15:00,
2013-01-10 02:20:00,41.0,-1.8,31.03,SSW,213,8.0,15.0,16,-99.99,,,0.00,meteohub,2013-01-10 07:20:00,
2013-01-10 02:25:00,40.8,-2.0,31.03,South,186,8.0,15.0,16,-99.99,,,0.00,meteohub,2013-01-10 07:25:00,
2013-01-10 02:31:00,40.8,-2.0,31.03,South,182,10.0,13.0,16,-99.99,,,0.00,meteohub,2013-01-10 07:31:00,
2013-01-10 02:36:00,40.8,-2.0,31.03,SSW,202,11.0,13.0,16,-99.99,,,0.00,meteohub,2013-01-10 07:36:00,
2013-01-10 02:41:00,40.8,-2.0,31.03,South,182,13.0,16.0,16,-99.99,,,0.00,meteohub,2013-01-10 07:41:00,
2013-01-10 02:46:00,40.6,-2.0,31.03,SSW,206,11.0,16.0,16,-99.99,,,0.00,meteohub,2013-01-10 07:46:00,
2013-01-10 02:51:00,40.6,-6.3,31.03,SSW,205,13.0,16.0,13,-99.99,,,0.00,meteohub,2013-01-10 07:51:00,
2013-01-10 02:57:00,40.6,-6.3,31.03,SSW,198,13.0,16.0,13,-99.99,,,0.00,meteohub,2013-01-10 07:57:00,
2013-01-10 03:02:00,40.6,-6.3,31.03,SSW,203,11.0,16.0,13,-99.99,,,0.00,meteohub,2013-01-10 08:02:00,
2013-01-10 03:07:00,40.8,-6.3,31.03,South,181,11.0,16.0,13,-99.99,,,0.00,meteohub,2013-01-10 08:07:00,
2013-01-10 03:12:00,40.6,-6.3,31.03,South,189,13.0,17.0,13,-99.99,,,0.00,meteohub,2013-01-10 08:12:00,
2013-01-10 03:17:00,40.6,-6.3,31.03,South,191,11.0,17.0,13,-99.99,,,0.00,meteohub,2013-01-10 08:17:00,
2013-01-10 03:22:00,40.6,-6.3,31.03,SSW,198,13.0,21.0,13,-99.99,,,0.00,meteohub,2013-01-10 08:22:00,
2013-01-10 03:27:00,41.0,-6.2,31.03,SSW,197,15.0,21.0,13,-99.99,,,0.00,meteohub,2013-01-10 08:27:00,
2013-01-10 03:32:00,41.0,-9.6,31.03,SSW,202,23.0,23.0,11,-99.99,,,0.00,meteohub,2013-01-10 08:32:00,
2013-01-10 03:37:00,40.8,-9.8,31.03,SSW,196,19.0,23.0,11,-99.99,,,0.00,meteohub,2013-01-10 08:37:00,
2013-01-10 03:42:00,41.0,-9.6,31.03,SSW,201,13.0,23.0,11,-99.99,,,0.00,meteohub,2013-01-10 08:42:00,
2013-01-10 03:47:00,40.8,-9.8,31.03,SSW,210,13.0,23.0,11,-99.99,,,0.00,meteohub,2013-01-10 08:47:00,
2013-01-10 03:53:00,40.8,-9.8,31.03,SW,226,13.0,20.0,11,-99.99,,,0.00,meteohub,2013-01-10 08:53:00,
2013-01-10 03:58:00,41.5,-9.0,31.03,SSW,199,17.0,30.0,11,-99.99,,,0.00,meteohub,2013-01-10 08:58:00,
2013-01-10 04:03:00,41.2,-9.4,31.03,SSW,194,13.0,32.0,11,-99.99,,,0.00,meteohub,2013-01-10 09:03:00,
2013-01-10 04:09:00,41.5,-9.0,31.03,SW,232,19.0,32.0,11,-99.99,,,0.00,meteohub,2013-01-10 09:09:00,
2013-01-10 04:14:00,41.4,-9.2,31.03,SW,216,17.0,32.0,11,-99.99,,,0.00,meteohub,2013-01-10 09:14:00,
2013-01-10 04:19:00,40.8,-9.8,31.03,SSW,211,20.0,28.0,11,-99.99,,,0.00,meteohub,2013-01-10 09:19:00,
2013-01-10 04:24:00,40.8,-9.8,31.03,SSW,196,15.0,28.0,11,-99.99,,,0.00,meteohub,2013-01-10 09:24:00,
2013-01-10 04:30:00,40.6,-9.8,31.03,SW,223,10.0,26.0,11,-99.99,,,0.00,meteohub,2013-01-10 09:30:00,
2013-01-10 04:35:00,40.8,-9.8,31.03,SSW,198,29.0,29.0,11,-99.99,,,0.00,meteohub,2013-01-10 09:35:00,
2013-01-10 04:40:00,40.5,-9.9,31.03,SSE,159,8.0,29.0,11,-99.99,,,0.00,meteohub,2013-01-10 09:40:00,
2013-01-10 04:45:00,40.6,-9.8,31.03,South,186,17.0,29.0,11,-99.99,,,0.00,meteohub,2013-01-10 09:45:00,
2013-01-10 04:50:00,40.5,-9.9,31.03,SSW,211,6.0,29.0,11,-99.99,,,0.00,meteohub,2013-01-10 09:50:00,
2013-01-10 04:56:00,40.3,-10.1,31.03,SSW,197,11.0,28.0,11,-99.99,,,0.00,meteohub,2013-01-10 09:56:00,
2013-01-10 05:01:00,40.1,-10.3,31.03,WSW,257,15.0,26.0,11,-99.99,,,0.00,meteohub,2013-01-10 10:01:00,
2013-01-10 05:07:00,40.1,-10.3,31.03,SW,216,13.0,26.0,11,-99.99,,,0.00,meteohub,2013-01-10 10:07:00,
2013-01-10 05:12:00,39.9,-10.3,31.03,SW,227,9.0,26.0,11,-99.99,,,0.00,meteohub,2013-01-10 10:12:00,
2013-01-10 05:17:00,39.7,-10.5,31.03,SSW,205,8.0,26.0,11,-99.99,,,0.00,meteohub,2013-01-10 10:17:00,
2013-01-10 05:22:00,39.6,-10.7,31.03,SSW,203,8.0,26.0,11,-99.99,,,0.00,meteohub,2013-01-10 10:22:00,
2013-01-10 05:27:00,39.4,-10.8,31.03,West,262,11.0,17.0,11,-99.99,,,0.00,meteohub,2013-01-10 10:27:00,
2013-01-10 05:32:00,39.2,-11.0,31.03,SSW,212,9.0,17.0,11,-99.99,,,0.00,meteohub,2013-01-10 10:32:00,
2013-01-10 05:37:00,39.4,-10.8,31.03,SSW,195,13.0,16.0,11,-99.99,,,0.00,meteohub,2013-01-10 10:37:00,
2013-01-10 05:43:00,39.2,-11.0,31.03,SW,229,13.0,17.0,11,-99.99,,,0.00,meteohub,2013-01-10 10:43:00,
2013-01-10 05:48:00,39.0,-11.0,31.03,South,185,11.0,17.0,11,-99.99,,,0.00,meteohub,2013-01-10 10:48:00,
2013-01-10 05:53:00,38.8,-11.2,31.03,SSW,198,12.0,17.0,11,-99.99,,,0.00,meteohub,2013-01-10 10:53:00,
2013-01-10 05:59:00,38.8,-11.2,31.03,SSW,199,17.0,17.0,11,-99.99,,,0.00,meteohub,2013-01-10 10:59:00,
2013-01-10 06:04:00,38.8,-11.2,31.03,SSW,213,12.0,17.0,11,-99.99,,,0.00,meteohub,2013-01-10 11:04:00,
2013-01-10 06:09:00,38.7,-11.4,31.03,South,190,12.0,17.0,11,-99.99,,,0.00,meteohub,2013-01-10 11:09:00,
2013-01-10 06:15:00,38.7,-11.4,31.03,SSW,199,13.0,17.0,11,-99.99,,,0.00,meteohub,2013-01-10 11:15:00,
2013-01-10 06:20:00,38.5,-11.6,31.03,SSW,207,13.0,15.0,11,-99.99,,,0.00,meteohub,2013-01-10 11:20:00,
2013-01-10 06:25:00,38.3,-11.7,31.03,SSW,207,11.0,15.0,11,-99.99,,,0.00,meteohub,2013-01-10 11:25:00,
2013-01-10 06:30:00,38.3,-11.7,31.03,SSW,192,13.0,15.0,11,-99.99,,,0.00,meteohub,2013-01-10 11:30:00,
2013-01-10 06:36:00,38.1,-11.7,31.03,South,179,13.0,14.0,11,-99.99,,,0.00,meteohub,2013-01-10 11:36:00,
2013-01-10 06:41:00,38.1,-11.7,31.03,SSW,201,8.0,16.0,11,-99.99,,,0.00,meteohub,2013-01-10 11:41:00,
2013-01-10 06:47:00,37.9,-11.9,31.03,South,189,9.0,16.0,11,-99.99,,,0.00,meteohub,2013-01-10 11:47:00,
2013-01-10 06:52:00,37.8,-12.1,31.03,South,186,11.0,15.0,11,-99.99,,,0.00,meteohub,2013-01-10 11:52:00,
2013-01-10 06:57:00,37.6,-12.3,31.03,SSW,197,8.0,15.0,11,-99.99,,,0.00,meteohub,2013-01-10 11:57:00,
2013-01-10 07:02:00,37.4,-12.3,31.03,SSW,192,10.0,13.0,11,-99.99,,,0.00,meteohub,2013-01-10 12:02:00,
2013-01-10 07:07:00,37.2,-10.8,31.03,SSW,204,11.0,13.0,12,-99.99,,,0.00,meteohub,2013-01-10 12:07:00,
2013-01-10 07:12:00,37.2,-10.8,31.03,SSW,205,8.0,13.0,12,-99.99,,,0.00,meteohub,2013-01-10 12:12:00,
2013-01-10 07:17:00,37.0,-10.8,31.03,SSW,208,8.0,13.0,12,-99.99,,,0.00,meteohub,2013-01-10 12:17:00,
2013-01-10 07:22:00,37.0,-10.8,31.03,SSW,194,5.0,13.0,12,-99.99,,,0.00,meteohub,2013-01-10 12:22:00,
2013-01-10 07:27:00,37.0,-10.8,31.03,South,187,6.0,11.0,12,-99.99,,,0.00,meteohub,2013-01-10 12:27:00,
2013-01-10 07:32:00,37.0,-10.8,31.03,South,188,5.0,11.0,12,-99.99,,,0.00,meteohub,2013-01-10 12:32:00,
2013-01-10 07:37:00,36.9,-11.0,31.03,SSW,201,6.0,10.0,12,-99.99,,,0.00,meteohub,2013-01-10 12:37:00,
2013-01-10 07:42:00,36.9,-11.0,31.03,SSW,211,5.0,10.0,12,-99.99,,,0.00,meteohub,2013-01-10 12:42:00,
2013-01-10 07:48:00,37.2,-10.8,31.03,SSW,204,8.0,10.0,12,-99.99,,,0.00,meteohub,2013-01-10 12:48:00,
2013-01-10 07:53:00,37.4,-12.3,31.03,SSW,208,9.0,10.0,11,-99.99,,,0.00,meteohub,2013-01-10 12:53:00,
2013-01-10 07:58:00,37.6,-12.3,31.03,South,170,6.0,10.0,11,-99.99,,,0.00,meteohub,2013-01-10 12:58:00,
2013-01-10 08:04:00,37.8,-12.1,31.03,South,174,5.0,13.0,11,-99.99,,,0.00,meteohub,2013-01-10 13:04:00,
2013-01-10 08:09:00,37.6,-12.3,31.03,South,184,6.0,13.0,11,-99.99,,,0.00,meteohub,2013-01-10 13:09:00,
2013-01-10 08:14:00,37.8,-12.1,31.03,SSW,196,9.0,10.0,11,-99.99,,,0.00,meteohub,2013-01-10 13:14:00,
2013-01-10 08:19:00,37.9,-11.9,31.03,SSW,204,6.0,10.0,11,-99.99,,,0.00,meteohub,2013-01-10 13:19:00,
2013-01-10 08:25:00,37.9,-11.9,31.03,SSW,193,8.0,10.0,11,-99.99,,,0.00,meteohub,2013-01-10 13:25:00,
2013-01-10 08:30:00,38.1,-11.7,31.03,SSW,199,11.0,11.0,11,-99.99,,,0.00,meteohub,2013-01-10 13:30:00,
2013-01-10 08:35:00,38.3,-11.7,31.03,SSW,198,8.0,13.0,11,-99.99,,,0.00,meteohub,2013-01-10 13:35:00,
2013-01-10 08:41:00,38.5,-11.6,31.03,SSW,206,10.0,13.0,11,-99.99,,,0.00,meteohub,2013-01-10 13:41:00,
2013-01-10 08:46:00,38.7,-11.4,31.03,SW,214,9.0,13.0,11,-99.99,,,0.00,meteohub,2013-01-10 13:46:00,
2013-01-10 08:51:00,38.8,-11.2,31.03,SSW,199,8.0,13.0,11,-99.99,,,0.00,meteohub,2013-01-10 13:51:00,
2013-01-10 08:57:00,39.0,-11.0,31.03,SSW,196,15.0,15.0,11,-99.99,,,0.00,meteohub,2013-01-10 13:57:00,
2013-01-10 09:02:00,39.4,-10.8,31.03,SSW,207,11.0,13.0,11,-99.99,,,0.00,meteohub,2013-01-10 14:02:00,
2013-01-10 09:07:00,39.7,-10.5,31.03,SSW,193,13.0,15.0,11,-99.99,,,0.00,meteohub,2013-01-10 14:07:00,
2013-01-10 09:12:00,40.1,-10.3,31.03,SSW,208,8.0,15.0,11,-99.99,,,0.00,meteohub,2013-01-10 14:12:00,
2013-01-10 09:17:00,40.5,-9.9,31.03,SW,233,12.0,15.0,11,-99.99,,,0.00,meteohub,2013-01-10 14:17:00,
2013-01-10 09:22:00,40.8,-9.8,31.03,South,183,13.0,15.0,11,-99.99,,,0.00,meteohub,2013-01-10 14:22:00,
2013-01-10 09:27:00,41.0,-11.4,31.03,SSW,212,16.0,17.0,10,-99.99,,,0.00,meteohub,2013-01-10 14:27:00,
2013-01-10 09:32:00,41.4,-11.2,31.03,SSW,205,8.0,17.0,10,-99.99,,,0.00,meteohub,2013-01-10 14:32:00,
2013-01-10 09:37:00,41.7,-10.8,31.03,SSW,197,15.0,20.0,10,-99.99,,,0.00,meteohub,2013-01-10 14:37:00,
2013-01-10 09:42:00,41.7,-10.8,31.03,SSW,204,12.0,20.0,10,-99.99,,,0.00,meteohub,2013-01-10 14:42:00,
2013-01-10 09:47:00,42.1,-10.7,31.03,SSW,197,13.0,27.0,10,-99.99,,,0.00,meteohub,2013-01-10 14:47:00,
2013-01-10 09:52:00,42.3,-10.5,31.03,SSW,202,12.0,27.0,10,-99.99,,,0.00,meteohub,2013-01-10 14:52:00,
2013-01-10 09:57:00,43.2,-11.9,31.03,SSW,192,11.0,27.0,9,-99.99,,,0.00,meteohub,2013-01-10 14:57:00,
2013-01-10 10:02:00,43.5,-11.6,31.03,South,190,11.0,21.0,9,-99.99,,,0.00,meteohub,2013-01-10 15:02:00,
2013-01-10 10:07:00,43.5,-11.6,31.03,SSW,202,16.0,21.0,9,-99.99,,,0.00,meteohub,2013-01-10 15:07:00,
2013-01-10 10:12:00,44.2,-11.0,31.03,SSW,205,9.0,20.0,9,-99.99,,,0.00,meteohub,2013-01-10 15:12:00,
2013-01-10 10:17:00,43.5,-11.6,31.03,SSW,212,13.0,20.0,9,-99.99,,,0.00,meteohub,2013-01-10 15:17:00,
2013-01-10 10:22:00,44.6,-10.8,31.03,SW,231,9.0,20.0,9,-99.99,,,0.00,meteohub,2013-01-10 15:22:00,
2013-01-10 10:27:00,43.9,-11.4,31.03,SSW,199,11.0,18.0,9,-99.99,,,0.00,meteohub,2013-01-10 15:27:00,
2013-01-10 10:32:00,44.2,-11.0,31.03,SSW,209,9.0,18.0,9,-99.99,,,0.00,meteohub,2013-01-10 15:32:00,
2013-01-10 10:37:00,44.1,-11.2,31.03,WSW,243,8.0,16.0,9,-99.99,,,0.00,meteohub,2013-01-10 15:37:00,
2013-01-10 10:42:00,43.7,-11.6,31.03,SSW,213,13.0,18.0,9,-99.99,,,0.00,meteohub,2013-01-10 15:42:00,
2013-01-10 10:48:00,44.2,-11.0,31.03,SSE,165,13.0,20.0,9,-99.99,,,0.00,meteohub,2013-01-10 15:48:00,
2013-01-10 10:53:00,43.7,-11.6,31.03,SSW,209,13.0,20.0,9,-99.99,,,0.00,meteohub,2013-01-10 15:53:00,
2013-01-10 10:58:00,44.1,-11.2,31.03,SSW,210,15.0,20.0,9,-99.99,,,0.00,meteohub,2013-01-10 15:58:00,
2013-01-10 11:03:00,44.1,-11.2,31.03,SW,227,9.0,20.0,9,-99.99,,,0.00,meteohub,2013-01-10 16:03:00,
2013-01-10 11:09:00,44.1,-11.2,31.03,SW,218,13.0,18.0,9,-99.99,,,0.00,meteohub,2013-01-10 16:09:00,
2013-01-10 11:14:00,43.9,-11.4,31.03,SSW,203,8.0,22.0,9,-99.99,,,0.00,meteohub,2013-01-10 16:14:00,
2013-01-10 11:19:00,44.2,-11.0,31.03,SW,231,18.0,22.0,9,-99.99,,,0.00,meteohub,2013-01-10 16:19:00,
2013-01-10 11:24:00,44.8,-10.7,31.03,SSW,202,15.0,22.0,9,-99.99,,,0.00,meteohub,2013-01-10 16:24:00,
2013-01-10 11:30:00,45.3,-10.3,31.03,WSW,245,11.0,20.0,9,-99.99,,,0.00,meteohub,2013-01-10 16:30:00,
2013-01-10 11:35:00,45.0,-10.5,31.03,SW,227,15.0,20.0,9,-99.99,,,0.00,meteohub,2013-01-10 16:35:00,
2013-01-10 11:40:00,45.7,-9.9,31.03,WSW,246,6.0,21.0,9,-99.99,,,0.00,meteohub,2013-01-10 16:40:00,
2013-01-10 11:45:00,46.8,-11.6,31.03,WSW,254,8.0,21.0,8,-99.99,,,0.00,meteohub,2013-01-10 16:45:00,
2013-01-10 11:50:00,46.8,-11.6,31.03,WNW,282,14.0,14.0,8,-99.99,,,0.00,meteohub,2013-01-10 16:50:00,
2013-01-10 11:56:00,46.2,-9.6,31.03,SW,228,13.0,14.0,9,-99.99,,,0.00,meteohub,2013-01-10 16:56:00,
2013-01-10 12:01:00,47.7,-10.8,31.03,WNW,285,15.0,17.0,8,-99.99,,,0.00,meteohub,2013-01-10 17:01:00,
2013-01-10 12:06:00,45.5,-10.1,31.03,WSW,253,13.0,19.0,9,-99.99,,,0.00,meteohub,2013-01-10 17:06:00,
2013-01-10 12:11:00,46.9,-11.4,31.03,WSW,241,14.0,19.0,8,-99.99,,,0.00,meteohub,2013-01-10 17:11:00,
2013-01-10 12:17:00,46.0,-9.8,31.03,SW,236,12.0,20.0,9,-99.99,,,0.00,meteohub,2013-01-10 17:17:00,
2013-01-10 12:22:00,46.8,-11.6,31.03,SW,229,8.0,20.0,8,-99.99,,,0.00,meteohub,2013-01-10 17:22:00,
2013-01-10 12:27:00,48.0,-10.5,31.03,SW,236,17.0,20.0,8,-99.99,,,0.00,meteohub,2013-01-10 17:27:00,
2013-01-10 12:32:00,48.2,-10.5,31.03,WSW,249,14.0,20.0,8,-99.99,,,0.00,meteohub,2013-01-10 17:32:00,
2013-01-10 12:37:00,46.9,-11.4,31.03,SSW,200,9.0,17.0,8,-99.99,,,0.00,meteohub,2013-01-10 17:37:00,
2013-01-10 12:42:00,47.1,-11.2,31.03,SW,225,10.0,17.0,8,-99.99,,,0.00,meteohub,2013-01-10 17:42:00,
2013-01-10 12:47:00,47.1,-11.2,31.03,SW,222,11.0,14.0,8,-99.99,,,0.00,meteohub,2013-01-10 17:47:00,
2013-01-10 12:52:00,46.2,-9.6,31.03,WSW,240,16.0,17.0,9,-99.99,,,0.00,meteohub,2013-01-10 17:52:00,
2013-01-10 12:58:00,46.6,-11.7,31.03,West,265,9.0,17.0,8,-99.99,,,0.00,meteohub,2013-01-10 17:58:00,
2013-01-10 13:03:00,47.5,-11.0,31.03,SW,230,15.0,17.0,8,-99.99,,,0.00,meteohub,2013-01-10 18:03:00,
2013-01-10 13:08:00,47.3,-11.2,31.03,WSW,239,8.0,19.0,8,-99.99,,,0.00,meteohub,2013-01-10 18:08:00,
2013-01-10 13:13:00,47.3,-11.2,31.03,SSW,206,6.0,19.0,8,-99.99,,,0.00,meteohub,2013-01-10 18:13:00,
2013-01-10 13:19:00,46.4,-11.7,31.03,SW,234,15.0,19.0,8,-99.99,,,0.00,meteohub,2013-01-10 18:19:00,
2013-01-10 13:24:00,48.0,-10.5,31.03,SSW,213,12.0,18.0,8,-99.99,,,0.00,meteohub,2013-01-10 18:24:00,
2013-01-10 13:29:00,46.4,-11.7,31.03,SW,220,16.0,18.0,8,-99.99,,,0.00,meteohub,2013-01-10 18:29:00,
2013-01-10 13:34:00,46.8,-11.6,31.03,West,279,8.0,18.0,8,-99.99,,,0.00,meteohub,2013-01-10 18:34:00,
2013-01-10 13:40:00,49.3,-9.6,31.03,West,259,16.0,17.0,8,-99.99,,,0.00,meteohub,2013-01-10 18:40:00,
2013-01-10 13:45:00,50.7,-8.5,31.03,WSW,254,10.0,16.0,8,-99.99,,,0.00,meteohub,2013-01-10 18:45:00,
2013-01-10 13:50:00,50.4,-8.9,31.03,WSW,251,4.0,16.0,8,-99.99,,,0.00,meteohub,2013-01-10 18:50:00,
2013-01-10 13:55:00,51.6,-7.8,31.03,West,262,8.0,16.0,8,-99.99,,,0.00,meteohub,2013-01-10 18:55:00,
2013-01-10 14:01:00,50.2,-8.9,31.03,SW,230,13.0,15.0,8,-99.99,,,0.00,meteohub,2013-01-10 19:01:00,
2013-01-10 14:06:00,47.7,-10.8,31.03,WSW,243,9.0,15.0,8,-99.99,,,0.00,meteohub,2013-01-10 19:06:00,
2013-01-10 14:11:00,48.9,-9.9,31.03,SW,232,12.0,17.0,8,-99.99,,,0.00,meteohub,2013-01-10 19:11:00,
2013-01-10 14:16:00,50.7,-8.5,31.03,WNW,292,6.0,15.0,8,-99.99,,,0.00,meteohub,2013-01-10 19:16:00,
2013-01-10 14:21:00,51.8,-10.5,31.03,WNW,294,6.0,15.0,7,-99.99,,,0.00,meteohub,2013-01-10 19:21:00,
2013-01-10 14:27:00,51.6,-7.8,31.03,West,270,9.0,15.0,8,-99.99,,,0.00,meteohub,2013-01-10 19:27:00,
2013-01-10 14:32:00,52.2,-10.1,31.03,West,269,9.0,11.0,7,-99.99,,,0.00,meteohub,2013-01-10 19:32:00,
2013-01-10 14:37:00,52.2,-10.1,31.03,WSW,253,5.0,15.0,7,-99.99,,,0.00,meteohub,2013-01-10 19:37:00,
2013-01-10 14:42:00,51.1,-8.3,31.03,WNW,287,8.0,15.0,8,-99.99,,,0.00,meteohub,2013-01-10 19:42:00,
2013-01-10 14:47:00,51.1,-8.3,31.03,West,279,11.0,13.0,8,-99.99,,,0.00,meteohub,2013-01-10 19:47:00,
2013-01-10 14:52:00,51.3,-8.1,31.03,WSW,247,6.0,12.0,8,-99.99,,,0.00,meteohub,2013-01-10 19:52:00,
2013-01-10 14:57:00,50.9,-8.3,31.03,SW,225,8.0,12.0,8,-99.99,,,0.00,meteohub,2013-01-10 19:57:00,
2013-01-10 15:02:00,49.1,-9.8,31.03,WSW,243,3.0,13.0,8,-99.99,,,0.00,meteohub,2013-01-10 20:02:00,
2013-01-10 15:07:00,49.6,-9.4,31.03,WSW,238,5.0,11.0,8,-99.99,,,0.00,meteohub,2013-01-10 20:07:00,
2013-01-10 15:12:00,47.5,-11.0,31.03,SW,217,9.0,11.0,8,-99.99,,,0.00,meteohub,2013-01-10 20:12:00,
2013-01-10 15:17:00,48.6,-10.1,31.03,SW,218,4.0,13.0,8,-99.99,,,0.00,meteohub,2013-01-10 20:17:00,
2013-01-10 15:25:00,47.8,-10.7,31.03,SW,233,8.0,13.0,8,-99.99,,,0.00,meteohub,2013-01-10 20:25:00,
2013-01-10 15:30:00,48.7,-9.9,31.03,SW,220,3.0,13.0,8,-99.99,,,0.00,meteohub,2013-01-10 20:30:00,
2013-01-10 15:36:00,47.3,-11.2,31.03,WSW,243,6.0,11.0,8,-99.99,,,0.00,meteohub,2013-01-10 20:36:00,
2013-01-10 15:41:00,47.3,-11.2,31.03,WSW,238,5.0,8.0,8,-99.99,,,0.00,meteohub,2013-01-10 20:41:00,
2013-01-10 15:46:00,46.9,-11.4,31.03,SW,222,9.0,11.0,8,-99.99,,,0.00,meteohub,2013-01-10 20:46:00,
2013-01-10 15:51:00,47.3,-11.2,31.03,WSW,248,10.0,11.0,8,-99.99,,,0.00,meteohub,2013-01-10 20:51:00,
2013-01-10 15:57:00,46.6,-11.7,31.03,SSW,195,5.0,11.0,8,-99.99,,,0.00,meteohub,2013-01-10 20:57:00,
2013-01-10 16:02:00,46.9,-11.4,31.03,WNW,290,3.0,12.0,8,-99.99,,,0.00,meteohub,2013-01-10 21:02:00,
2013-01-10 16:09:00,46.6,-11.7,31.03,WNW,284,5.0,12.0,8,-99.99,,,0.00,meteohub,2013-01-10 21:09:00,
2013-01-10 16:14:00,43.7,-11.6,31.03,WSW,245,14.0,14.0,9,-99.99,,,0.00,meteohub,2013-01-10 21:14:00,
2013-01-10 16:19:00,42.8,-12.1,31.03,SW,229,11.0,11.0,9,-99.99,,,0.00,meteohub,2013-01-10 21:19:00,
2013-01-10 16:25:00,43.3,-11.7,31.03,WSW,250,8.0,15.0,9,-99.99,,,0.00,meteohub,2013-01-10 21:25:00,
2013-01-10 16:30:00,42.8,-12.1,31.03,SW,233,6.0,15.0,9,-99.99,,,0.00,meteohub,2013-01-10 21:30:00,
2013-01-10 16:35:00,42.4,-10.3,31.03,West,266,6.0,15.0,10,-99.99,,,0.00,meteohub,2013-01-10 21:35:00,
2013-01-10 16:42:00,42.3,-10.5,31.03,SW,232,6.0,13.0,10,-99.99,,,0.00,meteohub,2013-01-10 21:42:00,
2013-01-10 16:47:00,41.9,-10.8,31.03,SW,224,10.0,13.0,10,-99.99,,,0.00,meteohub,2013-01-10 21:47:00,
2013-01-10 16:52:00,42.1,-10.7,31.03,West,277,6.0,11.0,10,-99.99,,,0.00,meteohub,2013-01-10 21:52:00,
2013-01-10 16:57:00,41.0,-11.4,31.03,SSW,212,8.0,11.0,10,-99.99,,,0.00,meteohub,2013-01-10 21:57:00,
2013-01-10 17:02:00,41.2,-11.4,31.03,WSW,252,8.0,11.0,10,-99.99,,,0.00,meteohub,2013-01-10 22:02:00,
2013-01-10 17:07:00,41.2,-11.4,31.03,West,279,4.0,11.0,10,-99.99,,,0.00,meteohub,2013-01-10 22:07:00,
2013-01-10 17:12:00,40.8,-9.8,31.03,SW,236,6.0,11.0,11,-99.99,,,0.00,meteohub,2013-01-10 22:12:00,
2013-01-10 17:17:00,40.8,-9.8,31.03,SW,227,6.0,11.0,11,-99.99,,,0.00,meteohub,2013-01-10 22:17:00,
2013-01-10 17:22:00,40.6,-9.8,31.03,SW,224,9.0,11.0,11,-99.99,,,0.00,meteohub,2013-01-10 22:22:00,
2013-01-10 17:27:00,40.6,-9.8,31.03,WSW,247,11.0,11.0,11,-99.99,,,0.00,meteohub,2013-01-10 22:27:00,
2013-01-10 17:32:00,40.6,-9.8,31.03,WNW,285,7.0,11.0,11,-99.99,,,0.00,meteohub,2013-01-10 22:32:00,
2013-01-10 17:37:00,40.6,-9.8,31.03,WSW,258,8.0,11.0,11,-99.99,,,0.00,meteohub,2013-01-10 22:37:00,
2013-01-10 17:42:00,40.5,-9.9,31.03,SSW,209,10.0,11.0,11,-99.99,,,0.00,meteohub,2013-01-10 22:42:00,
2013-01-10 17:47:00,40.5,-9.9,31.03,WSW,239,5.0,11.0,11,-99.99,,,0.00,meteohub,2013-01-10 22:47:00,
2013-01-10 17:53:00,40.5,-9.9,31.03,NW,305,8.0,15.0,11,-99.99,,,0.00,meteohub,2013-01-10 22:53:00,
2013-01-10 17:59:00,40.3,-10.1,31.03,WSW,251,8.0,15.0,11,-99.99,,,0.00,meteohub,2013-01-10 22:59:00,
2013-01-10 18:07:00,39.9,-10.3,31.03,WSW,252,8.0,12.0,11,-99.99,,,0.00,meteohub,2013-01-10 23:07:00,
2013-01-10 18:12:00,39.9,-10.3,31.03,WNW,303,4.0,12.0,11,-99.99,,,0.00,meteohub,2013-01-10 23:12:00,
2013-01-10 18:17:00,39.7,-10.5,31.03,WNW,298,6.0,12.0,11,-99.99,,,0.00,meteohub,2013-01-10 23:17:00,
2013-01-10 18:22:00,39.7,-10.5,31.03,West,271,13.0,13.0,11,-99.99,,,0.00,meteohub,2013-01-10 23:22:00,
2013-01-10 18:27:00,39.9,-10.3,31.03,SW,222,8.0,12.0,11,-99.99,,,0.00,meteohub,2013-01-10 23:27:00,
2013-01-10 18:32:00,39.7,-10.5,31.03,SSW,207,6.0,12.0,11,-99.99,,,0.00,meteohub,2013-01-10 23:32:00,
2013-01-10 18:37:00,39.7,-10.5,31.03,WSW,250,6.0,13.0,11,-99.99,,,0.00,meteohub,2013-01-10 23:37:00,
2013-01-10 18:42:00,39.7,-10.5,31.03,West,260,6.0,9.0,11,-99.99,,,0.00,meteohub,2013-01-10 23:42:00,
2013-01-10 18:47:00,39.7,-10.5,31.03,WSW,241,9.0,12.0,11,-99.99,,,0.00,meteohub,2013-01-10 23:47:00,
2013-01-10 18:52:00,39.7,-10.5,31.03,WSW,250,6.0,13.0,11,-99.99,,,0.00,meteohub,2013-01-10 23:52:00,
2013-01-10 18:57:00,39.6,-10.7,31.03,SW,232,7.0,13.0,11,-99.99,,,0.00,meteohub,2013-01-10 23:57:00,
2013-01-10 19:02:00,39.4,-10.8,31.03,SW,228,10.0,13.0,11,-99.99,,,0.00,meteohub,2013-01-11 00:02:00,
2013-01-10 19:08:00,39.6,-10.7,31.03,SW,220,9.0,11.0,11,-99.99,,,0.00,meteohub,2013-01-11 00:08:00,
2013-01-10 19:13:00,39.6,-10.7,31.03,WSW,238,6.0,12.0,11,-99.99,,,0.00,meteohub,2013-01-11 00:13:00,
2013-01-10 19:18:00,39.6,-10.7,31.03,WSW,244,9.0,13.0,11,-99.99,,,0.00,meteohub,2013-01-11 00:18:00,
2013-01-10 19:26:00,39.4,-10.8,31.03,SW,221,11.0,13.0,11,-99.99,,,0.00,meteohub,2013-01-11 00:26:00,
2013-01-10 19:32:00,39.2,-11.0,31.03,WSW,258,8.0,13.0,11,-99.99,,,0.00,meteohub,2013-01-11 00:32:00,
2013-01-10 19:37:00,39.2,-11.0,31.03,WSW,257,5.0,15.0,11,-99.99,,,0.00,meteohub,2013-01-11 00:37:00,
2013-01-10 19:42:00,39.2,-11.0,31.03,WSW,237,3.0,15.0,11,-99.99,,,0.00,meteohub,2013-01-11 00:42:00,
2013-01-10 19:47:00,39.2,-11.0,31.03,WSW,256,10.0,17.0,11,-99.99,,,0.00,meteohub,2013-01-11 00:47:00,
2013-01-10 19:52:00,39.2,-11.0,31.03,WSW,246,6.0,17.0,11,-99.99,,,0.00,meteohub,2013-01-11 00:52:00,
2013-01-10 19:57:00,39.2,-11.0,31.03,SW,221,12.0,17.0,11,-99.99,,,0.00,meteohub,2013-01-11 00:57:00,
2013-01-10 20:02:00,39.2,-11.0,31.03,WSW,243,13.0,18.0,11,-99.99,,,0.00,meteohub,2013-01-11 01:02:00,
2013-01-10 20:07:00,39.2,-11.0,31.03,West,268,15.0,22.0,11,-99.99,,,0.00,meteohub,2013-01-11 01:07:00,
2013-01-10 20:12:00,39.0,-11.0,31.03,WSW,254,11.0,22.0,11,-99.99,,,0.00,meteohub,2013-01-11 01:12:00,
2013-01-10 20:17:00,39.0,-11.0,31.03,SW,231,5.0,22.0,11,-99.99,,,0.00,meteohub,2013-01-11 01:17:00,
2013-01-10 20:22:00,38.8,-11.2,31.03,WSW,243,17.0,17.0,11,-99.99,,,0.00,meteohub,2013-01-11 01:22:00,
2013-01-10 20:27:00,38.8,-11.2,31.03,SW,225,9.0,17.0,11,-99.99,,,0.00,meteohub,2013-01-11 01:27:00,
2013-01-10 20:32:00,38.7,-11.4,31.03,West,266,11.0,17.0,11,-99.99,,,0.00,meteohub,2013-01-11 01:32:00,
2013-01-10 20:37:00,38.7,-11.4,31.03,West,280,6.0,17.0,11,-99.99,,,0.00,meteohub,2013-01-11 01:37:00,
2013-01-10 20:44:00,38.5,-11.6,31.03,WSW,243,8.0,15.0,11,-99.99,,,0.00,meteohub,2013-01-11 01:44:00,
2013-01-10 20:49:00,38.5,-11.6,31.03,West,272,8.0,15.0,11,-99.99,,,0.00,meteohub,2013-01-11 01:49:00,
2013-01-10 20:55:00,38.5,-11.6,31.03,West,263,6.0,15.0,11,-99.99,,,0.00,meteohub,2013-01-11 01:55:00,
2013-01-10 21:00:00,38.1,-11.7,31.03,WNW,292,3.0,13.0,11,-99.99,,,0.00,meteohub,2013-01-11 02:00:00,
2013-01-10 21:06:00,37.9,-11.9,31.03,SW,227,11.0,13.0,11,-99.99,,,0.00,meteohub,2013-01-11 02:06:00,
2013-01-10 21:11:00,37.9,-11.9,31.03,WSW,245,6.0,13.0,11,-99.99,,,0.00,meteohub,2013-01-11 02:11:00,
2013-01-10 21:16:00,37.9,-11.9,31.03,WSW,237,6.0,13.0,11,-99.99,,,0.00,meteohub,2013-01-11 02:16:00,
2013-01-10 21:21:00,37.9,-11.9,31.03,WNW,283,4.0,13.0,11,-99.99,,,0.00,meteohub,2013-01-11 02:21:00,
2013-01-10 21:27:00,37.6,-12.3,31.03,SW,233,8.0,13.0,11,-99.99,,,0.00,meteohub,2013-01-11 02:27:00,
2013-01-10 21:32:00,37.4,-12.3,31.03,SSW,200,11.0,11.0,11,-99.99,,,0.00,meteohub,2013-01-11 02:32:00,
2013-01-10 21:37:00,37.6,-12.3,31.03,WSW,246,8.0,13.0,11,-99.99,,,0.00,meteohub,2013-01-11 02:37:00,
2013-01-10 21:42:00,37.4,-12.3,31.03,WSW,240,7.0,13.0,11,-99.99,,,0.00,meteohub,2013-01-11 02:42:00,
2013-01-10 21:47:00,37.4,-12.3,31.03,WSW,256,5.0,13.0,11,-99.99,,,0.00,meteohub,2013-01-11 02:47:00,
2013-01-10 21:53:00,37.4,-12.3,31.03,WNW,294,6.0,13.0,11,-99.99,,,0.00,meteohub,2013-01-11 02:53:00,
2013-01-10 21:58:00,37.4,-12.3,31.03,SW,231,5.0,13.0,11,-99.99,,,0.00,meteohub,2013-01-11 02:58:00,
2013-01-10 22:04:00,37.2,-10.8,31.03,WSW,241,8.0,13.0,12,-99.99,,,0.00,meteohub,2013-01-11 03:04:00,
2013-01-10 22:09:00,37.4,-12.3,31.03,West,265,8.0,13.0,11,-99.99,,,0.00,meteohub,2013-01-11 03:09:00,
2013-01-10 22:14:00,37.4,-12.3,31.03,West,268,8.0,15.0,11,-99.99,,,0.00,meteohub,2013-01-11 03:14:00,
2013-01-10 22:19:00,37.2,-10.8,31.03,WSW,244,8.0,15.0,12,-99.99,,,0.00,meteohub,2013-01-11 03:19:00,
2013-01-10 22:24:00,37.2,-10.8,31.03,West,279,5.0,15.0,12,-99.99,,,0.00,meteohub,2013-01-11 03:24:00,
2013-01-10 22:30:00,37.2,-10.8,31.03,WSW,247,8.0,13.0,12,-99.99,,,0.00,meteohub,2013-01-11 03:30:00,
2013-01-10 22:35:00,37.2,-10.8,31.03,West,274,5.0,13.0,12,-99.99,,,0.00,meteohub,2013-01-11 03:35:00,
2013-01-10 22:40:00,37.0,-10.8,31.03,SW,226,7.0,13.0,12,-99.99,,,0.00,meteohub,2013-01-11 03:40:00,
2013-01-10 22:46:00,37.2,-10.8,31.03,SW,233,8.0,13.0,12,-99.99,,,0.00,meteohub,2013-01-11 03:46:00,
2013-01-10 22:51:00,37.2,-10.8,31.03,WNW,289,5.0,13.0,12,-99.99,,,0.00,meteohub,2013-01-11 03:51:00,
2013-01-10 22:56:00,37.0,-10.8,31.03,West,266,6.0,13.0,12,-99.99,,,0.00,meteohub,2013-01-11 03:56:00,
2013-01-10 23:01:00,37.0,-10.8,31.03,WSW,249,9.0,13.0,12,-99.99,,,0.00,meteohub,2013-01-11 04:01:00,
2013-01-10 23:07:00,36.9,-11.0,31.03,WSW,245,6.0,13.0,12,-99.99,,,0.00,meteohub,2013-01-11 04:07:00,
2013-01-10 23:12:00,36.9,-11.0,31.03,WNW,301,10.0,12.0,12,-99.99,,,0.00,meteohub,2013-01-11 04:12:00,
2013-01-10 23:17:00,36.7,-11.2,31.03,WSW,244,8.0,11.0,12,-99.99,,,0.00,meteohub,2013-01-11 04:17:00,
2013-01-10 23:22:00,36.7,-11.2,31.03,West,262,8.0,11.0,12,-99.99,,,0.00,meteohub,2013-01-11 04:22:00,
2013-01-10 23:27:00,36.7,-11.2,31.03,West,277,5.0,11.0,12,-99.99,,,0.00,meteohub,2013-01-11 04:27:00,
2013-01-10 23:33:00,36.7,-8.1,31.03,West,266,10.0,11.0,14,-99.99,,,0.00,meteohub,2013-01-11 04:33:00,
2013-01-10 23:38:00,36.7,-8.1,31.03,WSW,251,11.0,13.0,14,-99.99,,,0.00,meteohub,2013-01-11 04:38:00,
2013-01-10 23:43:00,36.7,-8.1,31.03,WSW,241,9.0,13.0,14,-99.99,,,0.00,meteohub,2013-01-11 04:43:00,
2013-01-10 23:48:00,36.7,-8.1,31.03,West,274,7.0,13.0,14,-99.99,,,0.00,meteohub,2013-01-11 04:48:00,
2013-01-10 23:53:00,36.5,-8.1,31.03,SW,229,10.0,13.0,14,-99.99,,,0.00,meteohub,2013-01-11 04:53:00,